[[{"header":{"parameterUnit":"m.s-1","parameterCategory":1,"la1":30.2991,"la2":30.254,"lo1":-89.0895,"lo2":-89.0444,"dy":0.0017,"dx":0.0017,"nx":28,"ny":28,"refTime":"2024-07-05T21:00:00:Z","depth":0,"parameterNumber":2,"parameterNumberName":"U-component_of_WINDS"},"data":[0,0,0,0,0,0,0,0,0,0,0,0,0,0,0,0,0,0,0,0,0,0,0,0,0,0,0,0,0,0,0,0,0,0,0,0,0,0,0,0,0,0,0,0,0,0,0,0,0,0,0,0,0,0,0,0,0,0,3.7077,3.7079,0,3.7207,3.7208,3.721,3.7182,3.718,3.7177,3.7175,3.7306,3.7312,3.7318,0,0,0,0,0,0,0,0,0,0,0,0,0,3.6803,3.6808,3.7077,3.7079,3.708,3.7207,3.7208,3.721,3.7182,3.7179,3.7177,3.7174,3.7304,3.7311,3.7318,0,0,0,0,0,0,0,0,0,0,0,0,0,3.6926,3.6809,3.7077,3.7082,3.7083,3.7206,3.7209,3.7211,3.7183,3.7179,3.7176,3.7172,3.7302,3.7311,3.7319,3.7445,0,0,3.7345,3.7349,0,0,0,0,0,0,0,0,3.6919,3.6936,3.7079,3.7082,3.7084,3.7175,3.716,3.7289,3.7184,3.7145,3.7175,3.7171,3.7265,3.7277,3.7309,3.7451,3.7457,3.7346,3.7351,3.7355,3.7358,0,0,0,0,0,0,0,3.691,3.693,3.7128,3.7081,3.7084,3.7077,3.709,3.7184,3.7224,3.7148,3.7147,3.7162,3.7266,3.7301,3.7312,3.7459,3.7346,3.7354,3.7359,3.7362,3.7708,3.7712,0,0,0,0,0,0,3.69,3.6923,3.7124,3.7132,3.6991,3.7084,3.71,3.7149,3.7223,3.7231,3.7165,3.7161,3.7288,3.7302,3.7316,3.7467,3.7355,3.7363,3.7368,3.7704,3.7709,3.7713,0,0,0,0,0,0,3.6895,3.6918,3.7119,3.7027,3.7052,3.7093,3.7149,3.7154,3.7188,3.7236,3.7242,3.7194,3.7286,3.7304,3.7413,3.7471,3.7367,3.7375,3.7699,3.7705,3.7711,3.7769,0,0,0,0,0,0,3.6887,3.6917,3.6965,3.7029,3.7057,3.7214,3.7152,3.7159,3.7204,3.7199,3.7264,3.7272,3.7284,3.74,3.7421,3.7481,3.7382,3.7694,3.7702,3.7709,3.7762,3.7776,3.7789,0,0,0,0,0,3.6877,3.6977,3.6968,3.6992,3.7119,3.7217,3.7234,3.7246,3.7208,3.7257,3.7287,3.727,3.7461,3.7411,3.7435,3.7498,3.769,3.77,3.7708,3.7756,3.7774,3.7788,0,0,0,0,0,0,3.6919,3.6985,3.6976,3.71,3.7153,3.7213,3.7274,3.7265,3.733,3.7322,3.7335,3.735,3.746,3.749,3.7433,3.7623,3.757,3.7584,3.7599,3.7615,3.7628,3.7618,3.7389,0,0,0,0,0,3.6943,3.7017,3.7071,3.7175,3.7202,3.7234,3.7277,3.7282,3.7338,3.736,3.7398,3.7453,3.7525,3.7572,3.7641,3.7767,3.778,3.7822,3.7835,3.7846,3.7857,3.7924,3.7942,3.7743,3.7742,3.7742,0,0,3.6992,3.7038,3.7084,3.7184,3.7226,3.7302,3.7253,3.7336,3.7392,3.7373,3.7477,3.7507,3.7568,3.7685,3.7738,3.7713,3.7915,3.7857,3.7865,3.7871,3.7935,3.7954,3.797,3.7749,3.7748,3.7747,0,0,3.7121,3.7164,3.7253,3.7297,3.7361,3.7381,3.7403,3.7464,3.7483,3.7588,3.7574,3.7641,3.7766,3.7809,3.7848,3.7992,3.7977,3.8014,3.8083,3.8147,3.8163,3.8177,3.8226,3.8244,3.8026,3.8026,3.8026,0,3.7174,3.7288,3.7301,3.7385,3.7428,3.7415,3.7505,3.7546,3.763,3.766,3.7631,3.7786,3.7827,3.7952,3.7987,3.802,3.8044,3.8006,3.816,3.8174,3.8187,3.8234,3.8253,3.803,3.803,3.8029,3.8029,0,3.7349,3.7429,3.7494,3.7575,3.7626,3.7713,3.7737,3.7788,3.7788,3.7811,3.7917,3.7965,3.8043,3.8074,3.8076,3.82,3.8182,3.8157,3.8104,3.821,3.8254,3.8273,3.8036,3.8034,3.8033,3.8032,0,0,3.7508,3.7594,3.7617,3.7653,3.7723,3.7784,3.7869,3.7946,3.7988,3.8046,3.8116,3.8222,3.8199,3.8242,3.8249,3.8306,3.8414,3.8273,3.8275,3.8296,3.8552,3.8569,3.859,3.8406,3.8409,3.8412,3.8546,0,3.7641,3.7792,3.7805,3.7941,3.8013,3.8001,3.8075,3.8125,3.8149,3.8213,3.8239,3.8313,3.8278,3.8304,3.836,3.8389,3.8465,3.838,3.847,3.8473,3.8453,3.8613,3.8632,3.8756,3.8563,3.8566,3.8568,0,3.7817,3.7879,3.8022,3.808,3.8111,3.8177,3.8247,3.831,3.8366,3.8379,3.8427,3.8426,3.8512,3.8458,3.8576,3.8518,3.8556,3.8575,3.8581,3.8588,3.8526,3.8623,3.8796,3.8814,3.8596,3.8594,3.8592,0,3.7915,3.8035,3.8136,3.8167,3.8238,3.8284,3.8316,3.8368,3.8413,3.8474,3.8503,3.8574,3.8612,3.8666,3.8683,3.8642,3.88,3.8747,3.8812,3.8811,3.8844,3.8842,3.9024,3.8872,3.8872,3.8871,3.8871,0,3.8061,3.8148,3.818,3.8242,3.8339,3.8353,3.8448,3.8477,3.8524,3.859,3.8584,3.8646,3.8665,3.873,3.8744,3.8839,3.8857,3.8869,3.8871,3.8868,3.8866,3.8892,3.8883,3.8876,3.8875,3.8874,3.8873,0,3.8187,3.8212,3.832,3.8378,3.8395,3.8463,3.8512,3.8571,3.8593,3.8677,3.8697,3.8733,3.8809,3.8831,3.8923,3.8932,3.9042,3.9038,3.9023,3.9023,3.9085,3.9078,3.9289,3.9316,3.9148,3.915,3.9151,0,3.8278,3.8344,3.8409,3.8453,3.8486,3.8557,3.8603,3.8619,3.8666,3.8734,3.8784,3.8859,3.892,3.9042,3.9075,3.9145,3.9141,3.921,3.9151,3.9145,3.9139,3.9134,3.914,3.922,3.9222,3.9223,3.9224,0,3.8435,3.8444,3.851,3.858,3.8634,3.869,3.8743,3.878,3.8803,3.8856,3.8934,3.8981,3.9074,3.9148,3.9219,3.925,3.9241,3.9243,3.9261,3.9258,3.9246,3.9251,3.9051,3.9237,3.9236,3.9235,3.9234,3.9234,3.8545,3.8603,3.8657,3.873,3.8772,3.8822,3.8879,3.8909,3.8974,3.9051,3.9057,3.914,3.9193,3.9287,3.9322,3.9387,3.9366,3.9393,3.94,3.9406,3.941,3.9237,3.94,3.94,3.9399,3.9399,3.9399,0,3.8701,3.8735,3.8802,3.8877,3.8934,3.8921,3.8979,3.9027,3.9101,3.9151,3.9211,3.9299,3.9371,3.941,3.948,3.9525,3.9522,3.9543,3.9538,3.9545,3.9425,3.9401,3.9543,3.9543,3.9543,3.9543,3.9543,3.9543,3.8788,3.8885,3.89,3.9017,3.905,3.9132,3.9166,3.9212,3.9252,3.9351,3.941,3.9435,3.948,3.9554,3.9619,3.9628,3.9653,3.9676,3.9683,3.9569,3.9554,3.954,3.9517,3.9682,3.9682,3.9798,3.9799,3.9799]},{"header":{"parameterUnit":"m.s-1","parameterCategory":1,"la1":30.2991,"la2":30.254,"lo1":-89.0895,"lo2":-89.0444,"dy":0.0017,"dx":0.0017,"nx":28,"ny":28,"refTime":"2024-07-05T21:00:00:Z","depth":0,"parameterNumber":3,"parameterNumberName":"V-component_of_WINDS"},"data":[0,0,0,0,0,0,0,0,0,0,0,0,0,0,0,0,0,0,0,0,0,0,0,0,0,0,0,0,0,0,0,0,0,0,0,0,0,0,0,0,0,0,0,0,0,0,0,0,0,0,0,0,0,0,0,0,0,0,2.4874,2.4875,0,2.4993,2.4995,2.4996,2.4972,2.497,2.4968,2.4966,2.5088,2.5093,2.5098,0,0,0,0,0,0,0,0,0,0,0,0,0,2.4622,2.4627,2.4873,2.4875,2.4876,2.4993,2.4995,2.4996,2.4973,2.497,2.4967,2.4965,2.5086,2.5092,2.5098,0,0,0,0,0,0,0,0,0,0,0,0,0,2.4735,2.4628,2.4873,2.4879,2.488,2.4993,2.4995,2.4997,2.4973,2.497,2.4967,2.4964,2.5084,2.5092,2.5099,2.5214,0,0,2.5123,2.5127,0,0,0,0,0,0,0,0,2.4729,2.4745,2.4876,2.4878,2.4881,2.4965,2.4951,2.5069,2.4974,2.4938,2.4966,2.4962,2.5049,2.506,2.5089,2.5219,2.5224,2.5124,2.5129,2.5132,2.5135,0,0,0,0,0,0,0,2.4721,2.4739,2.4921,2.4878,2.4881,2.4875,2.4887,2.4973,2.501,2.4941,2.4939,2.4954,2.505,2.5082,2.5092,2.5226,2.5124,2.5131,2.5136,2.5139,2.5455,2.5459,0,0,0,0,0,0,2.4712,2.4733,2.4917,2.4924,2.4795,2.4882,2.4896,2.4941,2.5009,2.5017,2.4957,2.4952,2.507,2.5083,2.5096,2.5235,2.5132,2.514,2.5144,2.5451,2.5456,2.546,0,0,0,0,0,0,2.4706,2.4728,2.4912,2.4828,2.4851,2.489,2.494,2.4945,2.4977,2.5021,2.5028,2.4983,2.5068,2.5085,2.5185,2.5239,2.5143,2.515,2.5447,2.5453,2.5458,2.5512,0,0,0,0,0,0,2.4699,2.4727,2.4771,2.483,2.4856,2.4999,2.4944,2.495,2.4991,2.4987,2.5048,2.5055,2.5067,2.5173,2.5192,2.5248,2.5157,2.5443,2.545,2.5456,2.5506,2.5519,2.553,0,0,0,0,0,2.469,2.4781,2.4773,2.4796,2.4912,2.5002,2.5017,2.503,2.4995,2.504,2.5068,2.5053,2.5229,2.5183,2.5205,2.5264,2.5439,2.5448,2.5456,2.55,2.5516,2.553,0,0,0,0,0,0,2.4728,2.4789,2.4781,2.4894,2.4943,2.4998,2.5055,2.5046,2.5106,2.51,2.5112,2.5126,2.5227,2.5255,2.5203,2.5377,2.5329,2.5342,2.5356,2.5371,2.5383,2.5375,2.5163,0,0,0,0,0,2.4749,2.4818,2.4867,2.4962,2.4987,2.5017,2.5057,2.5062,2.5113,2.5134,2.5169,2.522,2.5286,2.533,2.5394,2.5509,2.5522,2.556,2.5572,2.5582,2.5593,2.5656,2.5674,2.5487,2.5487,2.5487,0,0,2.4794,2.4836,2.4879,2.4971,2.5009,2.508,2.5035,2.5111,2.5163,2.5145,2.5242,2.5269,2.5326,2.5434,2.5483,2.546,2.5648,2.5592,2.56,2.5606,2.5666,2.5684,2.57,2.5492,2.5491,2.5491,0,0,2.4912,2.4951,2.5034,2.5074,2.5133,2.5152,2.5172,2.5228,2.5246,2.5343,2.5331,2.5393,2.5507,2.5548,2.5584,2.5716,2.5704,2.5736,2.5801,2.5862,2.5876,2.589,2.5937,2.5954,2.5747,2.5748,2.5748,0,2.4961,2.5067,2.5078,2.5156,2.5196,2.5183,2.5267,2.5305,2.5382,2.541,2.5383,2.5527,2.5564,2.5681,2.5713,2.5742,2.5765,2.573,2.5873,2.5887,2.5899,2.5945,2.5963,2.5751,2.5751,2.575,2.575,0,2.5124,2.5197,2.5257,2.5332,2.5379,2.546,2.5482,2.5528,2.5529,2.5551,2.5649,2.5693,2.5765,2.5793,2.5794,2.591,2.5894,2.587,2.5823,2.592,2.5963,2.5981,2.5756,2.5755,2.5754,2.5753,0,0,2.5271,2.535,2.5372,2.5406,2.5469,2.5526,2.5605,2.5677,2.5716,2.5769,2.5836,2.5933,2.5911,2.5951,2.5957,2.601,2.6112,2.598,2.5981,2.6003,2.6243,2.6262,2.6282,2.6104,2.6107,2.611,2.6239,0,2.5395,2.5536,2.5547,2.5674,2.5742,2.573,2.5799,2.5845,2.5867,2.5927,2.5951,2.6019,2.5985,2.6009,2.6062,2.6089,2.6161,2.608,2.6167,2.617,2.6154,2.6304,2.6325,2.6444,2.6256,2.6258,2.6261,0,2.556,2.5618,2.5752,2.5806,2.5835,2.5897,2.5962,2.602,2.6072,2.6084,2.6129,2.6127,2.6208,2.6155,2.6267,2.6211,2.6247,2.6266,2.6271,2.628,2.6222,2.6319,2.6482,2.6501,2.6287,2.6285,2.6283,0,2.5654,2.5766,2.586,2.589,2.5955,2.5999,2.6028,2.6076,2.6118,2.6175,2.6202,2.6267,2.6304,2.6354,2.6369,2.633,2.648,2.6429,2.6493,2.6492,2.6526,2.6524,2.6699,2.6547,2.6547,2.6547,2.6546,0,2.5793,2.5876,2.5904,2.5962,2.6054,2.6065,2.6155,2.6182,2.6225,2.6287,2.628,2.6339,2.6355,2.6416,2.6428,2.6519,2.6535,2.6547,2.6549,2.6549,2.6547,2.6573,2.6566,2.6551,2.655,2.655,2.6549,0,2.5915,2.5937,2.6039,2.6092,2.6108,2.6173,2.6218,2.6274,2.6293,2.6373,2.6392,2.6424,2.6495,2.6515,2.6601,2.6609,2.6716,2.671,2.6699,2.6699,2.6762,2.6756,2.696,2.6988,2.6817,2.6819,2.682,0,2.6003,2.6066,2.6126,2.6167,2.6198,2.6265,2.6308,2.6321,2.6366,2.6429,2.6477,2.6548,2.6606,2.6721,2.6751,2.6817,2.6813,2.688,2.6823,2.682,2.6815,2.6812,2.6818,2.6891,2.6893,2.6894,2.6896,0,2.6156,2.6164,2.6226,2.6292,2.6343,2.6396,2.6446,2.648,2.65,2.655,2.6624,2.6669,2.6757,2.6827,2.6893,2.6922,2.6913,2.6913,2.6931,2.6932,2.6923,2.6929,2.673,2.6909,2.6907,2.6906,2.6906,2.6905,2.6265,2.632,2.6371,2.644,2.6479,2.6526,2.6581,2.6608,2.667,2.6743,2.6746,2.6826,2.6875,2.6963,2.6996,2.7058,2.7038,2.7064,2.7071,2.7078,2.7084,2.6912,2.707,2.7069,2.7069,2.7069,2.7069,0,2.6419,2.645,2.6514,2.6585,2.6639,2.6625,2.6679,2.6725,2.6796,2.6843,2.69,2.6984,2.7052,2.7087,2.7155,2.7198,2.7195,2.7215,2.7213,2.722,2.7097,2.7075,2.7216,2.7216,2.7216,2.7216,2.7216,2.7216,2.6505,2.6599,2.6612,2.6724,2.6755,2.6834,2.6867,2.691,2.6947,2.7042,2.7099,2.7121,2.7163,2.7233,2.7295,2.7303,2.7329,2.7352,2.7358,2.7243,2.7228,2.7214,2.7193,2.7357,2.7357,2.7475,2.7477,2.7477]}]]